{"data":{"norad_id":55155,"epoch":"2026-05-25T02:12:43.767072Z","epoch_age_seconds":64097,"freshness":"FRESH","line1":"1 55155U 23004R   26145.09217323  .00000034  00000+0  53927-4 0  9991","line2":"2 55155  87.9151  10.4574 0001675  77.5608 282.5711 13.17651564164441","mean_motion":13.17651564,"eccentricity":0.0001675,"inclination_deg":87.9151,"raan_deg":10.4574,"arg_perigee_deg":77.5608,"mean_anomaly_deg":282.5711,"bstar":5.3927e-5,"rev_number":16444,"period_min":109.28534062743,"perigee_km":1192.435153948,"apogee_km":1194.9717204944,"semimajor_km":7571.8404372212,"source":"CELESTRAK","updated_at":"2026-05-25T13:38:22.642520Z"}}